Regional Weather Roundup
Issued by NWS Jackson, KY

Home | Current Version | Previous Version | Text Only | Print | Product List | Glossary On
Versions: 1 2 3 4 5 6 7 8 9 10 11 12 13 14 15 16 17 18 19 20 21 22 23 24 25 26 27 28
000
ASUS43 KJKL 182310
RWRJKL

EAST KENTUCKY HOURLY WEATHER ROUNDUP
NATIONAL WEATHER SERVICE JACKSON KY
700 PM EDT WED OCT 18 2017

NOTE: "FAIR" INDICATES FEW OR NO CLOUDS BELOW 12,000 FEET WITH
NO SIGNIFICANT WEATHER AND/OR OBSTRUCTIONS TO VISIBILITY.

* THESE REPORTS ARE NOT UNDER NWS QUALITY CONTROL AND MAY NOT
  REPORT WEATHER SUCH AS PRECIPITATION AND FOG.

KYZ079-080-083-085-087-088-110-112-115-119-120-190000
...EASTERN KENTUCKY...

CITY           SKY/WX    TMP DP  RH WIND       PRES   REMARKS
JACKSON        PTCLDY    63  39  41 CALM      30.26S
LONDON         CLEAR     66  43  43 CALM      30.26S
SOMERSET*      CLEAR     63  43  48 CALM      30.26S
MONTICELLO*    CLEAR     59  48  67 N12       30.26F
WILLIAMSBURG*  CLEAR     64  52  63 CALM      30.26S
MIDDLESBORO*   CLEAR     60  49  65 CALM      30.27S
HARLAN APT*    PTCLDY    63  45  51 CALM      30.27S
PIKE CO APT*     N/A     65  44  46 CALM      30.26S
BIG SANDY APT* CLEAR     62  44  53 CALM      30.26S
MOREHEAD APT*  CLEAR     63  48  59 CALM      30.26R
$$

KYZ035-036-041-042-044-050-067-078-099-190000
...CENTRAL KENTUCKY...

CITY           SKY/WX    TMP DP  RH WIND       PRES   REMARKS
MT STERLING*   CLEAR     63  45  51 CALM      30.26R
FLEMING/MASON* CLEAR     62  43  50 S3        30.25S
DANVILLE*      PTCLDY    61  43  51 CALM      30.25S
LEXINGTON      CLEAR     63  45  51 S5        30.24R
FRANKFORT      CLEAR     63  43  48 S6        30.22S
LOUISVILLE     PTCLDY    67  45  45 S7        30.20F
LEBANON*         N/A     63  45  51 SE3       30.24R
GLASGOW*       CLEAR     63  44  49 CALM      30.23S
BOWLING GREEN  CLEAR     66  45  46 S6        30.22S
$$

KYZ091>093-OHZ055-061-077-WVZ005-015-034-035-042-190000
...SOUTHERN OHIO/WEST VIRGINIA...

CITY           SKY/WX    TMP DP  RH WIND       PRES   REMARKS
COVINGTON      PTCLDY    63  44  50 SW5       30.21S
COLUMBUS       PTCLDY    64  40  41 S5        30.20S
DAYTON         PTCLDY    61  44  53 S6        30.20S
WILMINGTON     CLEAR     60  43  53 S6        30.21S
HUNTINGTON     CLEAR     65  40  39 S5        30.24S
CHARLESTON     PTCLDY    65  44  46 CALM      30.24S
PINEVILLE*     CLEAR     57  47  68 MISG      30.32R
BECKLEY        CLOUDY    60  35  39 SE9       30.29S
BLUEFIELD      CLEAR     60  36  40 SE6       30.32R
LOGAN CO APT*    N/A     66  39  37 CALM      30.26S
$$

VAZ002-007-008-TNZ017-027-036-066-071-190000
...SOUTHWEST VIRGINIA/EAST TENNESSEE...

CITY           SKY/WX    TMP DP  RH WIND       PRES   REMARKS
WISE*          PTCLDY    57  41  54 S3        30.31F
JONESVILLE*      N/A     61  48  63 CALM      30.29S
ABINGDON*      CLEAR     62  47  56 CALM      30.29S
BRISTOL        MOCLDY    62  46  55 CALM      30.27S
MORRISTOWN*    CLEAR     64  41  42 CALM      30.26S
SEVIERVILLE*   CLEAR     63  46  55 CALM      30.26S
KNOXVILLE      PTCLDY    66  49  54 W3        30.25S
LAFOLLETTE*    CLEAR     59  50  72 CALM      30.30S
OAK RIDGE      CLEAR     61  53  75 CALM      30.27S
CROSSVILLE     CLEAR     62  44  51 S3        30.28R
NASHVILLE      PTCLDY    65  41  41 S7        30.23S
$$

...KEY TO REMARKS...
VSB - VISIBILITY IN MILES
WCI - WIND CHILL INDEX
HX  - HEAT INDEX

$$




USA.gov is the U.S. government's official web portal to all federal, state and local government web resources and services.